owner,sensor,date,latitude,longitude,air_pressure(mBar),qcFlag 
WAVCIS,ioos:station:WAVCIS:CSI03:1,2009-10-01T00:00:00Z,29.4412,-92.0613,1013.74,11111222 
WAVCIS,ioos:station:WAVCIS:CSI03:1,2009-10-01T01:00:00Z,29.4412,-92.0613,1013.93,11111222 
WAVCIS,ioos:station:WAVCIS:CSI03:1,2009-10-01T02:00:00Z,29.4412,-92.0613,1014.05,11111222 
WAVCIS,ioos:station:WAVCIS:CSI03:1,2009-10-01T03:00:00Z,29.4412,-92.0613,1014.23,11111222 
WAVCIS,ioos:station:WAVCIS:CSI03:1,2009-10-01T04:00:00Z,29.4412,-92.0613,1014.03,11111222 
WAVCIS,ioos:station:WAVCIS:CSI03:1,2009-10-01T05:00:00Z,29.4412,-92.0613,1013.35,11111222 
WAVCIS,ioos:station:WAVCIS:CSI03:1,2009-10-01T06:00:00Z,29.4412,-92.0613,1012.89,11111222 
WAVCIS,ioos:station:WAVCIS:CSI03:1,2009-10-01T07:00:00Z,29.4412,-92.0613,1012.44,11111222 
WAVCIS,ioos:station:WAVCIS:CSI03:1,2009-10-01T08:00:00Z,29.4412,-92.0613,1012.01,11111222 
WAVCIS,ioos:station:WAVCIS:CSI03:1,2009-10-01T09:00:00Z,29.4412,-92.0613,1011.58,11111222 
WAVCIS,ioos:station:WAVCIS:CSI03:1,2009-10-01T10:00:00Z,29.4412,-92.0613,1011.68,11111222 
WAVCIS,ioos:station:WAVCIS:CSI03:1,2009-10-01T11:00:00Z,29.4412,-92.0613,1012.26,11111222 
WAVCIS,ioos:station:WAVCIS:CSI03:1,2009-10-01T12:00:00Z,29.4412,-92.0613,1012.27,11111222 
WAVCIS,ioos:station:WAVCIS:CSI03:1,2009-10-01T13:00:00Z,29.4412,-92.0613,1012.58,11111222 
WAVCIS,ioos:station:WAVCIS:CSI03:1,2009-10-01T14:00:00Z,29.4412,-92.0613,1012.87,11111222 
WAVCIS,ioos:station:WAVCIS:CSI03:1,2009-10-01T15:00:00Z,29.4412,-92.0613,1012.82,11111222 
WAVCIS,ioos:station:WAVCIS:CSI03:1,2009-10-01T16:00:00Z,29.4412,-92.0613,1012.62,11111222 
WAVCIS,ioos:station:WAVCIS:CSI03:1,2009-10-01T17:00:00Z,29.4412,-92.0613,1012.59,11111222 
WAVCIS,ioos:station:WAVCIS:CSI03:1,2009-10-01T18:00:00Z,29.4412,-92.0613,1012.09,11111222 
WAVCIS,ioos:station:WAVCIS:CSI03:1,2009-10-01T19:00:00Z,29.4412,-92.0613,1011.27,11111222 
WAVCIS,ioos:station:WAVCIS:CSI03:1,2009-10-01T20:00:00Z,29.4412,-92.0613,1010.89,11111222 
WAVCIS,ioos:station:WAVCIS:CSI03:1,2009-10-01T21:00:00Z,29.4412,-92.0613,1010.02,11111222 
WAVCIS,ioos:station:WAVCIS:CSI03:1,2009-10-01T22:00:00Z,29.4412,-92.0613,1009.75,11111222 
WAVCIS,ioos:station:WAVCIS:CSI03:1,2009-10-01T23:00:00Z,29.4412,-92.0613,1009.72,11111222 
WAVCIS,ioos:station:WAVCIS:CSI03:1,2009-10-02T00:00:00Z,29.4412,-92.0613,1009.5,11111222 
WAVCIS,ioos:station:WAVCIS:CSI03:1,2009-10-02T01:00:00Z,29.4412,-92.0613,1009.68,11111222 
WAVCIS,ioos:station:WAVCIS:CSI03:1,2009-10-02T02:00:00Z,29.4412,-92.0613,1008.65,11111222 
WAVCIS,ioos:station:WAVCIS:CSI03:1,2009-10-02T03:00:00Z,29.4412,-92.0613,1008.53,11111222 
WAVCIS,ioos:station:WAVCIS:CSI03:1,2009-10-02T04:00:00Z,29.4412,-92.0613,1008.64,11111222 
WAVCIS,ioos:station:WAVCIS:CSI03:1,2009-10-02T05:00:00Z,29.4412,-92.0613,1008.72,11111222 
WAVCIS,ioos:station:WAVCIS:CSI03:1,2009-10-02T06:00:00Z,29.4412,-92.0613,1008.51,11111222 
WAVCIS,ioos:station:WAVCIS:CSI03:1,2009-10-02T07:00:00Z,29.4412,-92.0613,1008.49,11111222 
WAVCIS,ioos:station:WAVCIS:CSI03:1,2009-10-02T08:00:00Z,29.4412,-92.0613,1007.88,11111222 
WAVCIS,ioos:station:WAVCIS:CSI03:1,2009-10-02T09:00:00Z,29.4412,-92.0613,1006.817,11111222 
WAVCIS,ioos:station:WAVCIS:CSI03:1,2009-10-02T10:00:00Z,29.4412,-92.0613,1008.66,11111222 
WAVCIS,ioos:station:WAVCIS:CSI03:1,2009-10-02T11:00:00Z,29.4412,-92.0613,1009.71,11111222 
WAVCIS,ioos:station:WAVCIS:CSI03:1,2009-10-02T12:00:00Z,29.4412,-92.0613,1009.85,11111222 
WAVCIS,ioos:station:WAVCIS:CSI03:1,2009-10-02T13:00:00Z,29.4412,-92.0613,1010.0,11111222 
WAVCIS,ioos:station:WAVCIS:CSI03:1,2009-10-02T14:00:00Z,29.4412,-92.0613,1010.34,11111222 
WAVCIS,ioos:station:WAVCIS:CSI03:1,2009-10-02T15:00:00Z,29.4412,-92.0613,1009.85,11111222 
WAVCIS,ioos:station:WAVCIS:CSI03:1,2009-10-02T16:00:00Z,29.4412,-92.0613,1010.64,11111222 
WAVCIS,ioos:station:WAVCIS:CSI03:1,2009-10-02T17:00:00Z,29.4412,-92.0613,1010.69,11111222 
WAVCIS,ioos:station:WAVCIS:CSI03:1,2009-10-02T18:00:00Z,29.4412,-92.0613,1010.01,11111222 
WAVCIS,ioos:station:WAVCIS:CSI03:1,2009-10-02T19:00:00Z,29.4412,-92.0613,1009.17,11111222 
WAVCIS,ioos:station:WAVCIS:CSI03:1,2009-10-02T20:00:00Z,29.4412,-92.0613,1008.88,11111222 
WAVCIS,ioos:station:WAVCIS:CSI03:1,2009-10-02T21:00:00Z,29.4412,-92.0613,1008.65,11111222 
WAVCIS,ioos:station:WAVCIS:CSI03:1,2009-10-02T22:00:00Z,29.4412,-92.0613,1008.38,11111222 
WAVCIS,ioos:station:WAVCIS:CSI03:1,2009-10-02T23:00:00Z,29.4412,-92.0613,1008.37,11111222 
WAVCIS,ioos:station:WAVCIS:CSI03:1,2009-10-03T00:00:00Z,29.4412,-92.0613,1008.78,11111222 
WAVCIS,ioos:station:WAVCIS:CSI03:1,2009-10-03T01:00:00Z,29.4412,-92.0613,1008.88,11111222 
WAVCIS,ioos:station:WAVCIS:CSI03:1,2009-10-03T02:00:00Z,29.4412,-92.0613,1009.13,11111222 
WAVCIS,ioos:station:WAVCIS:CSI03:1,2009-10-03T03:00:00Z,29.4412,-92.0613,1009.75,11111222 
WAVCIS,ioos:station:WAVCIS:CSI03:1,2009-10-03T04:00:00Z,29.4412,-92.0613,1009.92,11111222 
WAVCIS,ioos:station:WAVCIS:CSI03:1,2009-10-03T05:00:00Z,29.4412,-92.0613,1009.64,11111222 
WAVCIS,ioos:station:WAVCIS:CSI03:1,2009-10-03T06:00:00Z,29.4412,-92.0613,1009.46,11111222 
WAVCIS,ioos:station:WAVCIS:CSI03:1,2009-10-03T07:00:00Z,29.4412,-92.0613,1009.54,11111222 
WAVCIS,ioos:station:WAVCIS:CSI03:1,2009-10-03T08:00:00Z,29.4412,-92.0613,1009.63,11111222 
WAVCIS,ioos:station:WAVCIS:CSI03:1,2009-10-03T09:00:00Z,29.4412,-92.0613,1009.59,11111222 
WAVCIS,ioos:station:WAVCIS:CSI03:1,2009-10-03T10:00:00Z,29.4412,-92.0613,1009.5,11111222 
WAVCIS,ioos:station:WAVCIS:CSI03:1,2009-10-03T11:00:00Z,29.4412,-92.0613,1009.72,11111222 
WAVCIS,ioos:station:WAVCIS:CSI03:1,2009-10-03T12:00:00Z,29.4412,-92.0613,1010.06,11111222 
WAVCIS,ioos:station:WAVCIS:CSI03:1,2009-10-03T13:00:00Z,29.4412,-92.0613,1010.61,11111222 
WAVCIS,ioos:station:WAVCIS:CSI03:1,2009-10-03T14:00:00Z,29.4412,-92.0613,1011.01,11111222 
WAVCIS,ioos:station:WAVCIS:CSI03:1,2009-10-03T15:00:00Z,29.4412,-92.0613,1011.39,11111222 
WAVCIS,ioos:station:WAVCIS:CSI03:1,2009-10-03T16:00:00Z,29.4412,-92.0613,1011.18,11111222 
WAVCIS,ioos:station:WAVCIS:CSI03:1,2009-10-03T17:00:00Z,29.4412,-92.0613,1010.76,11111222 
WAVCIS,ioos:station:WAVCIS:CSI03:1,2009-10-03T18:00:00Z,29.4412,-92.0613,1010.58,11111222 
WAVCIS,ioos:station:WAVCIS:CSI03:1,2009-10-03T19:00:00Z,29.4412,-92.0613,1009.85,11111222 
WAVCIS,ioos:station:WAVCIS:CSI03:1,2009-10-03T20:00:00Z,29.4412,-92.0613,1009.09,11111222 
WAVCIS,ioos:station:WAVCIS:CSI03:1,2009-10-03T21:00:00Z,29.4412,-92.0613,1008.63,11111222 
WAVCIS,ioos:station:WAVCIS:CSI03:1,2009-10-03T22:00:00Z,29.4412,-92.0613,1008.4,11111222 
WAVCIS,ioos:station:WAVCIS:CSI03:1,2009-10-03T23:00:00Z,29.4412,-92.0613,1008.44,11111222 
WAVCIS,ioos:station:WAVCIS:CSI03:1,2009-10-04T00:00:00Z,29.4412,-92.0613,1008.74,11111222 
WAVCIS,ioos:station:WAVCIS:CSI03:1,2009-10-04T01:00:00Z,29.4412,-92.0613,1008.77,11111222 
WAVCIS,ioos:station:WAVCIS:CSI03:1,2009-10-04T02:00:00Z,29.4412,-92.0613,1009.22,11111222 
WAVCIS,ioos:station:WAVCIS:CSI03:1,2009-10-04T03:00:00Z,29.4412,-92.0613,1009.77,11111222 
WAVCIS,ioos:station:WAVCIS:CSI03:1,2009-10-04T04:00:00Z,29.4412,-92.0613,1009.89,11111222 
WAVCIS,ioos:station:WAVCIS:CSI03:1,2009-10-04T05:00:00Z,29.4412,-92.0613,1009.99,11111222 
WAVCIS,ioos:station:WAVCIS:CSI03:1,2009-10-04T06:00:00Z,29.4412,-92.0613,1010.06,11111222 
WAVCIS,ioos:station:WAVCIS:CSI03:1,2009-10-04T07:00:00Z,29.4412,-92.0613,1009.1,11111222 
WAVCIS,ioos:station:WAVCIS:CSI03:1,2009-10-04T08:00:00Z,29.4412,-92.0613,1008.18,11111222 
WAVCIS,ioos:station:WAVCIS:CSI03:1,2009-10-04T09:00:00Z,29.4412,-92.0613,1007.22,11111222 
WAVCIS,ioos:station:WAVCIS:CSI03:1,2009-10-04T10:00:00Z,29.4412,-92.0613,1006.794,11111222 
WAVCIS,ioos:station:WAVCIS:CSI03:1,2009-10-04T11:00:00Z,29.4412,-92.0613,1006.864,11111222 
WAVCIS,ioos:station:WAVCIS:CSI03:1,2009-10-04T12:00:00Z,29.4412,-92.0613,1006.883,11111222 
WAVCIS,ioos:station:WAVCIS:CSI03:1,2009-10-04T13:00:00Z,29.4412,-92.0613,1007.2,11111222 
WAVCIS,ioos:station:WAVCIS:CSI03:1,2009-10-04T14:00:00Z,29.4412,-92.0613,1008.11,11111222 
WAVCIS,ioos:station:WAVCIS:CSI03:1,2009-10-04T15:00:00Z,29.4412,-92.0613,1007.25,11111222 
WAVCIS,ioos:station:WAVCIS:CSI03:1,2009-10-04T16:00:00Z,29.4412,-92.0613,1008.75,11111222 
WAVCIS,ioos:station:WAVCIS:CSI03:1,2009-10-04T17:00:00Z,29.4412,-92.0613,1008.21,11111222 
WAVCIS,ioos:station:WAVCIS:CSI03:1,2009-10-04T18:00:00Z,29.4412,-92.0613,1007.66,11111222 
WAVCIS,ioos:station:WAVCIS:CSI03:1,2009-10-04T19:00:00Z,29.4412,-92.0613,1006.568,11111222 
WAVCIS,ioos:station:WAVCIS:CSI03:1,2009-10-04T20:00:00Z,29.4412,-92.0613,1006.591,11111222 
WAVCIS,ioos:station:WAVCIS:CSI03:1,2009-10-04T21:00:00Z,29.4412,-92.0613,1006.443,11111222 
WAVCIS,ioos:station:WAVCIS:CSI03:1,2009-10-04T22:00:00Z,29.4412,-92.0613,1006.484,11111222 
WAVCIS,ioos:station:WAVCIS:CSI03:1,2009-10-04T23:00:00Z,29.4412,-92.0613,1006.488,11111222 
WAVCIS,ioos:station:WAVCIS:CSI03:1,2009-10-05T00:00:00Z,29.4412,-92.0613,1006.373,11111222 
WAVCIS,ioos:station:WAVCIS:CSI03:1,2009-10-05T01:00:00Z,29.4412,-92.0613,1007.01,11111222 
WAVCIS,ioos:station:WAVCIS:CSI03:1,2009-10-05T02:00:00Z,29.4412,-92.0613,1007.93,11111222 
WAVCIS,ioos:station:WAVCIS:CSI03:1,2009-10-05T03:00:00Z,29.4412,-92.0613,1008.52,11111222 
WAVCIS,ioos:station:WAVCIS:CSI03:1,2009-10-05T04:00:00Z,29.4412,-92.0613,1008.55,11111222 
WAVCIS,ioos:station:WAVCIS:CSI03:1,2009-10-05T05:00:00Z,29.4412,-92.0613,1008.62,11111222 
WAVCIS,ioos:station:WAVCIS:CSI03:1,2009-10-05T06:00:00Z,29.4412,-92.0613,1008.45,11111222 
WAVCIS,ioos:station:WAVCIS:CSI03:1,2009-10-05T07:00:00Z,29.4412,-92.0613,1008.22,11111222 
WAVCIS,ioos:station:WAVCIS:CSI03:1,2009-10-05T08:00:00Z,29.4412,-92.0613,1008.26,11111222 
WAVCIS,ioos:station:WAVCIS:CSI03:1,2009-10-05T09:00:00Z,29.4412,-92.0613,1008.05,11111222 
WAVCIS,ioos:station:WAVCIS:CSI03:1,2009-10-05T10:00:00Z,29.4412,-92.0613,1008.22,11111222 
WAVCIS,ioos:station:WAVCIS:CSI03:1,2009-10-05T11:00:00Z,29.4412,-92.0613,1008.84,11111222 
WAVCIS,ioos:station:WAVCIS:CSI03:1,2009-10-05T12:00:00Z,29.4412,-92.0613,1009.44,11111222 
WAVCIS,ioos:station:WAVCIS:CSI03:1,2009-10-05T13:00:00Z,29.4412,-92.0613,1010.22,11111222 
WAVCIS,ioos:station:WAVCIS:CSI03:1,2009-10-05T14:00:00Z,29.4412,-92.0613,1010.44,11111222 
WAVCIS,ioos:station:WAVCIS:CSI03:1,2009-10-05T15:00:00Z,29.4412,-92.0613,1010.55,11111222 
WAVCIS,ioos:station:WAVCIS:CSI03:1,2009-10-05T16:00:00Z,29.4412,-92.0613,1010.71,11111222 
WAVCIS,ioos:station:WAVCIS:CSI03:1,2009-10-05T17:00:00Z,29.4412,-92.0613,1011.01,11111222 
WAVCIS,ioos:station:WAVCIS:CSI03:1,2009-10-05T18:00:00Z,29.4412,-92.0613,1010.8,11111222 
WAVCIS,ioos:station:WAVCIS:CSI03:1,2009-10-05T19:00:00Z,29.4412,-92.0613,1010.07,11111222 
WAVCIS,ioos:station:WAVCIS:CSI03:1,2009-10-05T20:00:00Z,29.4412,-92.0613,1009.49,11111222 
WAVCIS,ioos:station:WAVCIS:CSI03:1,2009-10-05T21:00:00Z,29.4412,-92.0613,1009.59,11111222 
WAVCIS,ioos:station:WAVCIS:CSI03:1,2009-10-05T22:00:00Z,29.4412,-92.0613,1009.34,11111222 
WAVCIS,ioos:station:WAVCIS:CSI03:1,2009-10-05T23:00:00Z,29.4412,-92.0613,1009.56,11111222 
WAVCIS,ioos:station:WAVCIS:CSI03:1,2009-10-06T00:00:00Z,29.4412,-92.0613,1009.46,11111222 
WAVCIS,ioos:station:WAVCIS:CSI03:1,2009-10-06T01:00:00Z,29.4412,-92.0613,1009.62,11111222 
WAVCIS,ioos:station:WAVCIS:CSI03:1,2009-10-06T02:00:00Z,29.4412,-92.0613,1010.07,11111222 
WAVCIS,ioos:station:WAVCIS:CSI03:1,2009-10-06T03:00:00Z,29.4412,-92.0613,1010.39,11111222 
WAVCIS,ioos:station:WAVCIS:CSI03:1,2009-10-06T04:00:00Z,29.4412,-92.0613,1010.4,11111222 
WAVCIS,ioos:station:WAVCIS:CSI03:1,2009-10-06T05:00:00Z,29.4412,-92.0613,1010.34,11111222 
WAVCIS,ioos:station:WAVCIS:CSI03:1,2009-10-06T06:00:00Z,29.4412,-92.0613,1010.09,11111222 
WAVCIS,ioos:station:WAVCIS:CSI03:1,2009-10-06T07:00:00Z,29.4412,-92.0613,1009.82,11111222 
WAVCIS,ioos:station:WAVCIS:CSI03:1,2009-10-06T08:00:00Z,29.4412,-92.0613,1009.33,11111222 
WAVCIS,ioos:station:WAVCIS:CSI03:1,2009-10-06T09:00:00Z,29.4412,-92.0613,1009.27,11111222 
WAVCIS,ioos:station:WAVCIS:CSI03:1,2009-10-06T10:00:00Z,29.4412,-92.0613,1009.48,11111222 
WAVCIS,ioos:station:WAVCIS:CSI03:1,2009-10-06T11:00:00Z,29.4412,-92.0613,1009.86,11111222 
WAVCIS,ioos:station:WAVCIS:CSI03:1,2009-10-06T12:00:00Z,29.4412,-92.0613,1010.11,11111222 
WAVCIS,ioos:station:WAVCIS:CSI03:1,2009-10-06T13:00:00Z,29.4412,-92.0613,1010.24,11111222 
WAVCIS,ioos:station:WAVCIS:CSI03:1,2009-10-06T14:00:00Z,29.4412,-92.0613,1010.61,11111222 
WAVCIS,ioos:station:WAVCIS:CSI03:1,2009-10-06T15:00:00Z,29.4412,-92.0613,1011.11,11111222 
WAVCIS,ioos:station:WAVCIS:CSI03:1,2009-10-06T16:00:00Z,29.4412,-92.0613,1011.16,11111222 
WAVCIS,ioos:station:WAVCIS:CSI03:1,2009-10-06T17:00:00Z,29.4412,-92.0613,1010.82,11111222 
WAVCIS,ioos:station:WAVCIS:CSI03:1,2009-10-06T18:00:00Z,29.4412,-92.0613,1010.47,11111222 
WAVCIS,ioos:station:WAVCIS:CSI03:1,2009-10-06T19:00:00Z,29.4412,-92.0613,1009.83,11111222 
WAVCIS,ioos:station:WAVCIS:CSI03:1,2009-10-06T20:00:00Z,29.4412,-92.0613,1009.81,11111222 
WAVCIS,ioos:station:WAVCIS:CSI03:1,2009-10-06T21:00:00Z,29.4412,-92.0613,1009.94,11111222 
WAVCIS,ioos:station:WAVCIS:CSI03:1,2009-10-06T22:00:00Z,29.4412,-92.0613,1010.35,11111222 
WAVCIS,ioos:station:WAVCIS:CSI03:1,2009-10-06T23:00:00Z,29.4412,-92.0613,1010.69,11111222 
WAVCIS,ioos:station:WAVCIS:CSI03:1,2009-10-07T00:00:00Z,29.4412,-92.0613,1010.71,11111222 
WAVCIS,ioos:station:WAVCIS:CSI03:1,2009-10-07T01:00:00Z,29.4412,-92.0613,1010.89,11111222 
WAVCIS,ioos:station:WAVCIS:CSI03:1,2009-10-07T02:00:00Z,29.4412,-92.0613,1011.06,11111222 
WAVCIS,ioos:station:WAVCIS:CSI03:1,2009-10-07T03:00:00Z,29.4412,-92.0613,1011.76,11111222 
WAVCIS,ioos:station:WAVCIS:CSI03:1,2009-10-07T04:00:00Z,29.4412,-92.0613,1011.75,11111222 
WAVCIS,ioos:station:WAVCIS:CSI03:1,2009-10-07T05:00:00Z,29.4412,-92.0613,1011.72,11111222 
WAVCIS,ioos:station:WAVCIS:CSI03:1,2009-10-07T06:00:00Z,29.4412,-92.0613,1011.63,11111222 
WAVCIS,ioos:station:WAVCIS:CSI03:1,2009-10-07T07:00:00Z,29.4412,-92.0613,1012.01,11111222 
WAVCIS,ioos:station:WAVCIS:CSI03:1,2009-10-07T08:00:00Z,29.4412,-92.0613,1012.39,11111222 
WAVCIS,ioos:station:WAVCIS:CSI03:1,2009-10-07T09:00:00Z,29.4412,-92.0613,1012.28,11111222 
WAVCIS,ioos:station:WAVCIS:CSI03:1,2009-10-07T10:00:00Z,29.4412,-92.0613,1012.59,11111222 
WAVCIS,ioos:station:WAVCIS:CSI03:1,2009-10-07T11:00:00Z,29.4412,-92.0613,1013.38,11111222 
WAVCIS,ioos:station:WAVCIS:CSI03:1,2009-10-07T12:00:00Z,29.4412,-92.0613,1013.78,11111222 
WAVCIS,ioos:station:WAVCIS:CSI03:1,2009-10-07T13:00:00Z,29.4412,-92.0613,1014.32,11111222 
WAVCIS,ioos:station:WAVCIS:CSI03:1,2009-10-07T14:00:00Z,29.4412,-92.0613,1014.84,11111222 
WAVCIS,ioos:station:WAVCIS:CSI03:1,2009-10-07T15:00:00Z,29.4412,-92.0613,1015.49,11111222 
WAVCIS,ioos:station:WAVCIS:CSI03:1,2009-10-07T16:00:00Z,29.4412,-92.0613,1015.69,11111222 
WAVCIS,ioos:station:WAVCIS:CSI03:1,2009-10-07T17:00:00Z,29.4412,-92.0613,1015.6,11111222 
WAVCIS,ioos:station:WAVCIS:CSI03:1,2009-10-07T18:00:00Z,29.4412,-92.0613,1015.08,11111222 
WAVCIS,ioos:station:WAVCIS:CSI03:1,2009-10-07T19:00:00Z,29.4412,-92.0613,1014.39,11111222 
WAVCIS,ioos:station:WAVCIS:CSI03:1,2009-10-07T20:00:00Z,29.4412,-92.0613,1013.88,11111222 
WAVCIS,ioos:station:WAVCIS:CSI03:1,2009-10-07T21:00:00Z,29.4412,-92.0613,1013.7,11111222 
WAVCIS,ioos:station:WAVCIS:CSI03:1,2009-10-07T22:00:00Z,29.4412,-92.0613,1013.4,11111222 
WAVCIS,ioos:station:WAVCIS:CSI03:1,2009-10-07T23:00:00Z,29.4412,-92.0613,1013.56,11111222 
WAVCIS,ioos:station:WAVCIS:CSI03:1,2009-10-08T00:00:00Z,29.4412,-92.0613,1013.46,11111222 
WAVCIS,ioos:station:WAVCIS:CSI03:1,2009-10-08T01:00:00Z,29.4412,-92.0613,1013.86,11111222 
WAVCIS,ioos:station:WAVCIS:CSI03:1,2009-10-08T02:00:00Z,29.4412,-92.0613,1014.19,11111222 
WAVCIS,ioos:station:WAVCIS:CSI03:1,2009-10-08T03:00:00Z,29.4412,-92.0613,1014.58,11111222 
WAVCIS,ioos:station:WAVCIS:CSI03:1,2009-10-08T04:00:00Z,29.4412,-92.0613,1014.67,11111222 
WAVCIS,ioos:station:WAVCIS:CSI03:1,2009-10-08T05:00:00Z,29.4412,-92.0613,1014.3,11111222 
WAVCIS,ioos:station:WAVCIS:CSI03:1,2009-10-08T06:00:00Z,29.4412,-92.0613,1013.97,11111222 
WAVCIS,ioos:station:WAVCIS:CSI03:1,2009-10-08T07:00:00Z,29.4412,-92.0613,1014.16,11111222 
WAVCIS,ioos:station:WAVCIS:CSI03:1,2009-10-08T08:00:00Z,29.4412,-92.0613,1013.85,11111222 
WAVCIS,ioos:station:WAVCIS:CSI03:1,2009-10-08T09:00:00Z,29.4412,-92.0613,1013.59,11111222 
WAVCIS,ioos:station:WAVCIS:CSI03:1,2009-10-08T10:00:00Z,29.4412,-92.0613,1013.76,11111222 
WAVCIS,ioos:station:WAVCIS:CSI03:1,2009-10-08T11:00:00Z,29.4412,-92.0613,1014.02,11111222 
WAVCIS,ioos:station:WAVCIS:CSI03:1,2009-10-08T12:00:00Z,29.4412,-92.0613,1013.93,11111222 
WAVCIS,ioos:station:WAVCIS:CSI03:1,2009-10-08T13:00:00Z,29.4412,-92.0613,1014.06,11111222 
WAVCIS,ioos:station:WAVCIS:CSI03:1,2009-10-08T14:00:00Z,29.4412,-92.0613,1014.59,11111222 
WAVCIS,ioos:station:WAVCIS:CSI03:1,2009-10-08T15:00:00Z,29.4412,-92.0613,1014.66,11111222 
WAVCIS,ioos:station:WAVCIS:CSI03:1,2009-10-08T16:00:00Z,29.4412,-92.0613,1014.37,11111222 
WAVCIS,ioos:station:WAVCIS:CSI03:1,2009-10-08T17:00:00Z,29.4412,-92.0613,1014.09,11111222 
WAVCIS,ioos:station:WAVCIS:CSI03:1,2009-10-08T18:00:00Z,29.4412,-92.0613,1013.38,11111222 
WAVCIS,ioos:station:WAVCIS:CSI03:1,2009-10-08T19:00:00Z,29.4412,-92.0613,1012.63,11111222 
WAVCIS,ioos:station:WAVCIS:CSI03:1,2009-10-08T20:00:00Z,29.4412,-92.0613,1011.73,11111222 
WAVCIS,ioos:station:WAVCIS:CSI03:1,2009-10-08T21:00:00Z,29.4412,-92.0613,1011.53,11111222 
WAVCIS,ioos:station:WAVCIS:CSI03:1,2009-10-08T22:00:00Z,29.4412,-92.0613,1011.44,11111222 
WAVCIS,ioos:station:WAVCIS:CSI03:1,2009-10-08T23:00:00Z,29.4412,-92.0613,1011.83,11111222 
WAVCIS,ioos:station:WAVCIS:CSI03:1,2009-10-09T00:00:00Z,29.4412,-92.0613,1011.89,11111222 
WAVCIS,ioos:station:WAVCIS:CSI03:1,2009-10-09T01:00:00Z,29.4412,-92.0613,1011.64,11111222 
WAVCIS,ioos:station:WAVCIS:CSI03:1,2009-10-09T02:00:00Z,29.4412,-92.0613,1011.47,11111222 
WAVCIS,ioos:station:WAVCIS:CSI03:1,2009-10-09T03:00:00Z,29.4412,-92.0613,1011.4,11111222 
WAVCIS,ioos:station:WAVCIS:CSI03:1,2009-10-09T04:00:00Z,29.4412,-92.0613,1010.95,11111222 
WAVCIS,ioos:station:WAVCIS:CSI03:1,2009-10-09T05:00:00Z,29.4412,-92.0613,1011.05,11111222 
WAVCIS,ioos:station:WAVCIS:CSI03:1,2009-10-09T06:00:00Z,29.4412,-92.0613,1010.54,11111222 
WAVCIS,ioos:station:WAVCIS:CSI03:1,2009-10-09T07:00:00Z,29.4412,-92.0613,1010.13,11111222 
WAVCIS,ioos:station:WAVCIS:CSI03:1,2009-10-09T08:00:00Z,29.4412,-92.0613,1009.54,11111222 
WAVCIS,ioos:station:WAVCIS:CSI03:1,2009-10-09T09:00:00Z,29.4412,-92.0613,1009.38,11111222 
WAVCIS,ioos:station:WAVCIS:CSI03:1,2009-10-09T10:00:00Z,29.4412,-92.0613,1009.41,11111222 
WAVCIS,ioos:station:WAVCIS:CSI03:1,2009-10-09T11:00:00Z,29.4412,-92.0613,1010.06,11111222 
WAVCIS,ioos:station:WAVCIS:CSI03:1,2009-10-09T12:00:00Z,29.4412,-92.0613,1010.21,11111222 
WAVCIS,ioos:station:WAVCIS:CSI03:1,2009-10-09T13:00:00Z,29.4412,-92.0613,1010.72,11111222 
WAVCIS,ioos:station:WAVCIS:CSI03:1,2009-10-09T14:00:00Z,29.4412,-92.0613,1011.1,11111222 
WAVCIS,ioos:station:WAVCIS:CSI03:1,2009-10-09T15:00:00Z,29.4412,-92.0613,1010.42,11111222 
WAVCIS,ioos:station:WAVCIS:CSI03:1,2009-10-09T16:00:00Z,29.4412,-92.0613,1010.36,11111222 
WAVCIS,ioos:station:WAVCIS:CSI03:1,2009-10-09T17:00:00Z,29.4412,-92.0613,1010.55,11111222 
WAVCIS,ioos:station:WAVCIS:CSI03:1,2009-10-09T18:00:00Z,29.4412,-92.0613,1009.45,11111222 
WAVCIS,ioos:station:WAVCIS:CSI03:1,2009-10-09T19:00:00Z,29.4412,-92.0613,1009.48,11111222 
WAVCIS,ioos:station:WAVCIS:CSI03:1,2009-10-09T20:00:00Z,29.4412,-92.0613,1009.3,11111222 
WAVCIS,ioos:station:WAVCIS:CSI03:1,2009-10-09T21:00:00Z,29.4412,-92.0613,1008.9,11111222 
WAVCIS,ioos:station:WAVCIS:CSI03:1,2009-10-09T22:00:00Z,29.4412,-92.0613,1010.26,11111222 
WAVCIS,ioos:station:WAVCIS:CSI03:1,2009-10-09T23:00:00Z,29.4412,-92.0613,1010.88,11111222 
WAVCIS,ioos:station:WAVCIS:CSI03:1,2009-10-10T00:00:00Z,29.4412,-92.0613,1011.85,11111222 
WAVCIS,ioos:station:WAVCIS:CSI03:1,2009-10-10T01:00:00Z,29.4412,-92.0613,1013.74,11111222 
WAVCIS,ioos:station:WAVCIS:CSI03:1,2009-10-10T02:00:00Z,29.4412,-92.0613,1013.95,11111222 
WAVCIS,ioos:station:WAVCIS:CSI03:1,2009-10-10T03:00:00Z,29.4412,-92.0613,1014.34,11111222 
WAVCIS,ioos:station:WAVCIS:CSI03:1,2009-10-10T04:00:00Z,29.4412,-92.0613,1013.85,11111222 
WAVCIS,ioos:station:WAVCIS:CSI03:1,2009-10-10T05:00:00Z,29.4412,-92.0613,1013.32,11111222 
WAVCIS,ioos:station:WAVCIS:CSI03:1,2009-10-10T06:00:00Z,29.4412,-92.0613,1012.75,11111222 
WAVCIS,ioos:station:WAVCIS:CSI03:1,2009-10-10T07:00:00Z,29.4412,-92.0613,1013.62,11111222 
WAVCIS,ioos:station:WAVCIS:CSI03:1,2009-10-10T08:00:00Z,29.4412,-92.0613,1013.1,11111222 
WAVCIS,ioos:station:WAVCIS:CSI03:1,2009-10-10T09:00:00Z,29.4412,-92.0613,1013.93,11111222 
WAVCIS,ioos:station:WAVCIS:CSI03:1,2009-10-10T10:00:00Z,29.4412,-92.0613,1013.73,11111222 
WAVCIS,ioos:station:WAVCIS:CSI03:1,2009-10-10T11:00:00Z,29.4412,-92.0613,1014.13,11111222 
WAVCIS,ioos:station:WAVCIS:CSI03:1,2009-10-10T12:00:00Z,29.4412,-92.0613,1014.74,11111222 
WAVCIS,ioos:station:WAVCIS:CSI03:1,2009-10-10T13:00:00Z,29.4412,-92.0613,1015.5,11111222 
WAVCIS,ioos:station:WAVCIS:CSI03:1,2009-10-11T16:00:00Z,29.4412,-92.0613,1017.31,11111222 
WAVCIS,ioos:station:WAVCIS:CSI03:1,2009-10-11T17:00:00Z,29.4412,-92.0613,1017.56,11111222 
WAVCIS,ioos:station:WAVCIS:CSI03:1,2009-10-11T18:00:00Z,29.4412,-92.0613,1017.15,11111222 
WAVCIS,ioos:station:WAVCIS:CSI03:1,2009-10-11T19:00:00Z,29.4412,-92.0613,1015.37,11111222 
WAVCIS,ioos:station:WAVCIS:CSI03:1,2009-10-11T20:00:00Z,29.4412,-92.0613,1014.87,11111222 
WAVCIS,ioos:station:WAVCIS:CSI03:1,2009-10-11T21:00:00Z,29.4412,-92.0613,1014.02,11111222 
WAVCIS,ioos:station:WAVCIS:CSI03:1,2009-10-11T22:00:00Z,29.4412,-92.0613,1013.52,11111222 
WAVCIS,ioos:station:WAVCIS:CSI03:1,2009-10-11T23:00:00Z,29.4412,-92.0613,1014.23,11111222 
WAVCIS,ioos:station:WAVCIS:CSI03:1,2009-10-12T00:00:00Z,29.4412,-92.0613,1014.05,11111222 
WAVCIS,ioos:station:WAVCIS:CSI03:1,2009-10-12T01:00:00Z,29.4412,-92.0613,1014.24,11111222 
WAVCIS,ioos:station:WAVCIS:CSI03:1,2009-10-12T02:00:00Z,29.4412,-92.0613,1015.04,11111222 
WAVCIS,ioos:station:WAVCIS:CSI03:1,2009-10-12T03:00:00Z,29.4412,-92.0613,1014.97,11111222 
WAVCIS,ioos:station:WAVCIS:CSI03:1,2009-10-12T04:00:00Z,29.4412,-92.0613,1014.62,11111222 
WAVCIS,ioos:station:WAVCIS:CSI03:1,2009-10-12T05:00:00Z,29.4412,-92.0613,1014.37,11111222 
WAVCIS,ioos:station:WAVCIS:CSI03:1,2009-10-12T06:00:00Z,29.4412,-92.0613,1013.85,11111222 
WAVCIS,ioos:station:WAVCIS:CSI03:1,2009-10-12T07:00:00Z,29.4412,-92.0613,1013.85,11111222 
WAVCIS,ioos:station:WAVCIS:CSI03:1,2009-10-12T08:00:00Z,29.4412,-92.0613,1013.38,11111222 
WAVCIS,ioos:station:WAVCIS:CSI03:1,2009-10-12T09:00:00Z,29.4412,-92.0613,1013.13,11111222 
WAVCIS,ioos:station:WAVCIS:CSI03:1,2009-10-12T10:00:00Z,29.4412,-92.0613,1013.33,11111222 
WAVCIS,ioos:station:WAVCIS:CSI03:1,2009-10-12T11:00:00Z,29.4412,-92.0613,1013.41,11111222 
WAVCIS,ioos:station:WAVCIS:CSI03:1,2009-10-12T12:00:00Z,29.4412,-92.0613,1013.94,11111222 
WAVCIS,ioos:station:WAVCIS:CSI03:1,2009-10-12T13:00:00Z,29.4412,-92.0613,1013.7,11111222 
WAVCIS,ioos:station:WAVCIS:CSI03:1,2009-10-12T14:00:00Z,29.4412,-92.0613,1013.91,11111222 
WAVCIS,ioos:station:WAVCIS:CSI03:1,2009-10-12T15:00:00Z,29.4412,-92.0613,1014.35,11111222 
WAVCIS,ioos:station:WAVCIS:CSI03:1,2009-10-12T16:00:00Z,29.4412,-92.0613,1014.83,11111222 
WAVCIS,ioos:station:WAVCIS:CSI03:1,2009-10-12T17:00:00Z,29.4412,-92.0613,1014.72,11111222 
WAVCIS,ioos:station:WAVCIS:CSI03:1,2009-10-12T18:00:00Z,29.4412,-92.0613,1014.36,11111222 
WAVCIS,ioos:station:WAVCIS:CSI03:1,2009-10-12T19:00:00Z,29.4412,-92.0613,1013.62,11111222 
WAVCIS,ioos:station:WAVCIS:CSI03:1,2009-10-12T20:00:00Z,29.4412,-92.0613,1012.69,11111222 
WAVCIS,ioos:station:WAVCIS:CSI03:1,2009-10-12T21:00:00Z,29.4412,-92.0613,1012.31,11111222 
WAVCIS,ioos:station:WAVCIS:CSI03:1,2009-10-12T22:00:00Z,29.4412,-92.0613,1012.72,11111222 
WAVCIS,ioos:station:WAVCIS:CSI03:1,2009-10-12T23:00:00Z,29.4412,-92.0613,1012.74,11111222 
WAVCIS,ioos:station:WAVCIS:CSI03:1,2009-10-13T00:00:00Z,29.4412,-92.0613,1013.37,11111222 